This is the latest recevied weather packets stored in our database for station/object K2CAT. If no packets are shown the sender has not sent any weather packets the latest 10 day(s).
| Time | Temp. | Humidity | Pressure | Rain* | Wind** | Luminosity | Snow |
|---|---|---|---|---|---|---|---|
| 1777337367 | 14.44° C | 65% | 1022.7 hPa | 0 mm | - | 0 W/m² | - |
| 1777337064 | 14.44° C | 61% | 1022.4 hPa | 0 mm | - | 0 W/m² | - |
| 1777336762 | 15° C | 60% | 1022.3 hPa | 0 mm | - | 0 W/m² | - |
| 1777336461 | 15° C | 60% | 1022.3 hPa | 0 mm | - | 0 W/m² | - |
| 1777336158 | 15° C | 58% | 1022.1 hPa | 0 mm | - | 0 W/m² | - |
| 1777335855 | 15.56° C | 59% | 1022.1 hPa | 0 mm | - | 0 W/m² | - |
| 1777335552 | 15.56° C | 56% | 1022 hPa | 0 mm | - | 0 W/m² | - |
| 1777335249 | 16.11° C | 55% | 1022.1 hPa | 0 mm | - | 0 W/m² | - |
| 1777334947 | 16.11° C | 54% | 1021.9 hPa | 0 mm | - | 0 W/m² | - |
| 1777334644 | 16.67° C | 54% | 1021.8 hPa | 0 mm | - | 0 W/m² | - |
| 1777334341 | 16.67° C | 52% | 1021.9 hPa | 0 mm | - | 1 W/m² | - |
| 1777334036 | 17.22° C | 52% | 1021.9 hPa | 0 mm | - | 1 W/m² | - |
| 1777333732 | 17.78° C | 49% | 1021.8 hPa | 0 mm | - | 2 W/m² | - |
| 1777333429 | 17.78° C | 49% | 1021.7 hPa | 0 mm | - | 4 W/m² | - |
| 1777333127 | 18.33° C | 48% | 1021.6 hPa | 0 mm | - | 6 W/m² | - |
| 1777332824 | 18.89° C | 44% | 1021.6 hPa | 0 mm | - | 8 W/m² | - |
| 1777332521 | 18.89° C | 46% | 1021.4 hPa | 0 mm | - | 9 W/m² | - |
| 1777332218 | 19.44° C | 42% | 1021.6 hPa | 0 mm | - | 11 W/m² | - |
| 1777331915 | 19.44° C | 41% | 1021.6 hPa | 0 mm | - | 13 W/m² | - |
| 1777331612 | 20° C | 41% | 1021.5 hPa | 0 mm | - | 15 W/m² | - |
| 1777331309 | 20° C | 38% | 1021.2 hPa | 0 mm | - | 17 W/m² | - |
| 1777331007 | 20° C | 42% | 1021.6 hPa | 0 mm | - | 20 W/m² | - |
| 1777330703 | 20.56° C | 39% | 1021.4 hPa | 0 mm | - | 21 W/m² | - |
| 1777330401 | 21.11° C | 38% | 1021.5 hPa | 0 mm | - | 23 W/m² | - |
| 1777330098 | 21.67° C | 38% | 1021.5 hPa | 0 mm | - | 26 W/m² | - |
* Rain latest hour (hover to see other rain measurements)
** Current wind speed in m/s (hover to see current wind gust speed)